Waarnemingen

Advertentie
Mijn weer
UFS Deutsche Bucht, Duitsland (10007): temperatuur & dauwpunt: 22.05.2017 06:00:00 - 28.05.2017 06:00:00 (CEST)UFS Deutsche Bucht, Duitsland (10007): windsnelheid & windstoten: 22.05.2017 06:00:00 - 28.05.2017 06:00:00 (CEST)UFS Deutsche Bucht, Duitsland (10007): windrichting: 22.05.2017 06:00:00 - 28.05.2017 06:00:00 (CEST)UFS Deutsche Bucht, Duitsland (10007): luchtdruk: 22.05.2017 06:00:00 - 28.05.2017 06:00:00 (CEST)UFS Deutsche Bucht, Duitsland (10007): zicht: 22.05.2017 06:00:00 - 28.05.2017 06:00:00 (CEST)UFS Deutsche Bucht, Duitsland (10007): Zonneschijnduur: 22.05.2017 06:00:00 - 28.05.2017 06:00:00 (CEST)
Datum & Tijd tt [°C] td [°C] ff [km/u] ff [kn] fx [km/u] fx [kn] dd ppp [hPa] vv [km] sd [min]
28.05.2017 06:00:00 14,1 12,8 22 12 - - ZW - 10 0
28.05.2017 05:00:00 - - - - - - - - - -
28.05.2017 04:00:00 14,5 12,8 22 12 - - WZW 1016,1 10 0
28.05.2017 03:00:00 - - - - - - - - - -
28.05.2017 02:00:00 - - - - - - - - - -
28.05.2017 01:00:00 17,0 13,7 29 16 - - ZZW 1016,7 10 0
28.05.2017 00:00:00 17,0 13,9 32 18 - - ZO 1015,9 10 0
27.05.2017 23:00:00 17,6 14,1 32 18 - - ZO 1016,2 10 0
27.05.2017 22:00:00 19,2 14,3 29 16 - - ZO 1016,5 10 36
27.05.2017 21:00:00 17,9 13,2 29 16 - - ZO 1016,6 10 60
27.05.2017 20:00:00 17,5 13,4 25 14 - - OZO 1016,6 10 60
27.05.2017 19:00:00 - - - - - - - - - -
27.05.2017 18:00:00 17,5 13,6 29 16 - - O 1017,4 10 60
27.05.2017 17:00:00 17,4 13,6 25 14 - - O 1018,0 10 60
27.05.2017 16:00:00 16,5 13,7 22 12 - - O 1018,5 10 60
27.05.2017 15:00:00 16,0 13,6 22 12 - - O 1018,9 10 60
27.05.2017 14:00:00 16,0 13,8 25 14 - - OZO 1019,3 10 60
27.05.2017 13:00:00 15,6 13,7 22 12 - - OZO 1020,1 10 60
27.05.2017 12:00:00 14,9 13,7 25 14 - - OZO 1020,5 9 60
27.05.2017 11:00:00 14,4 13,3 22 12 - - OZO 1020,7 10 60
27.05.2017 10:00:00 14,1 13,0 22 12 - - ZO 1021,2 10 60
27.05.2017 09:00:00 14,1 12,9 18 10 - - ZO 1021,4 10 60
27.05.2017 08:00:00 - - - - - - - - - -
27.05.2017 07:00:00 - - - - - - - - - -
27.05.2017 06:00:00 12,7 12,6 14 8 - - O 1021,5 4,6 0
27.05.2017 05:00:00 11,9 11,9 18 10 - - O 1021,3 1,0 0
27.05.2017 04:00:00 11,0 11,0 18 10 - - - 1021,5 0,6 0
27.05.2017 03:00:00 10,4 10,4 18 10 - - O 1021,7 0,4 0
27.05.2017 02:00:00 10,3 10,3 18 10 - - O 1021,9 0,2 0
27.05.2017 01:00:00 10,2 10,3 14 8 - - ONO 1022,2 0,2 0
27.05.2017 00:00:00 10,2 10,2 14 8 - - ONO 1022,4 0,2 0
26.05.2017 23:00:00 10,3 10,3 11 6 - - ONO 1022,5 0,2 0
26.05.2017 22:00:00 10,4 10,4 22 12 - - NNO 1022,3 0,1 0
26.05.2017 21:00:00 10,5 10,5 14 8 - - NNO 1022,5 0,2 0
26.05.2017 20:00:00 10,7 10,7 14 8 - - N 1022,8 0,2 0
26.05.2017 19:00:00 10,7 10,7 18 10 - - NNO 1023,1 0,3 0
26.05.2017 18:00:00 10,9 10,9 14 8 - - N 1023,4 0,4 0
26.05.2017 17:00:00 11,2 11,2 11 6 - - N 1023,8 1,9 6
26.05.2017 16:00:00 11,2 11,1 14 8 - - N 1023,8 5 6
26.05.2017 15:00:00 - - 11 6 - - N 1024,2 9 0
26.05.2017 14:00:00 - - - - - - - - - -
26.05.2017 13:00:00 10,9 10,9 14 8 - - N 1024,7 10 0
26.05.2017 12:00:00 10,7 10,7 11 6 - - N 1024,7 10 0
26.05.2017 11:00:00 10,5 10,5 14 8 - - NNO 1024,6 6 0
26.05.2017 10:00:00 10,4 10,4 14 8 - - N 1024,8 0,6 12
26.05.2017 09:00:00 10,2 10,2 14 8 - - NNW 1024,3 0,4 0
26.05.2017 08:00:00 10,2 10,2 14 8 - - NW 1024,0 0,2 0
26.05.2017 07:00:00 10,3 10,3 18 10 - - NNW 1024,0 0,2 0
26.05.2017 06:00:00 10,2 10,2 14 8 - - NNW 1023,9 0,2 0
26.05.2017 05:00:00 10,3 10,3 11 6 - - N 1024,0 0,3 0
26.05.2017 04:00:00 10,2 10,2 18 10 - - NNW 1023,9 0,2 0
26.05.2017 03:00:00 10,4 10,4 14 8 - - NNW 1023,8 0,1 0
26.05.2017 02:00:00 10,9 10,9 18 10 - - NNW 1023,8 0,1 0
26.05.2017 01:00:00 12,1 12,0 18 10 - - NW 1023,9 10 0
26.05.2017 00:00:00 12,0 12,0 18 10 - - NW 1023,7 10 0
25.05.2017 23:00:00 11,7 11,7 18 10 - - NW 1023,8 0,7 0
25.05.2017 22:00:00 11,8 11,6 18 10 - - NW 1023,7 7 0
25.05.2017 21:00:00 12,5 12,0 18 10 - - WNW 1023,8 10 36
25.05.2017 20:00:00 12,8 11,9 22 12 - - WNW 1023,9 10 0
25.05.2017 19:00:00 12,8 11,9 22 12 - - W 1024,0 10 60
25.05.2017 18:00:00 - - - - - - - - - -
25.05.2017 17:00:00 12,5 11,5 18 10 - - W 1024,7 10 42
25.05.2017 16:00:00 - - - - - - - - - -
25.05.2017 15:00:00 12,5 11,6 22 12 - - W 1024,9 10 6
25.05.2017 14:00:00 - - - - - - - - - -
25.05.2017 13:00:00 - - - - - - - - - -
25.05.2017 12:00:00 12,1 11,0 14 8 - - WNW 1024,9 10 24
25.05.2017 11:00:00 11,9 11,0 18 10 - - WNW 1024,6 10 18
25.05.2017 10:00:00 11,6 10,9 22 12 - - WNW 1024,2 10 18
25.05.2017 09:00:00 11,6 10,7 22 12 - - WNW 1024,3 10 12
25.05.2017 08:00:00 11,3 10,7 14 8 - - WNW 1024,0 10 18
25.05.2017 07:00:00 11,4 10,5 18 10 - - NW 1023,9 10 0
25.05.2017 06:00:00 11,5 10,5 22 12 - - NW 1023,7 10 -
25.05.2017 05:00:00 10,7 10,7 22 12 - - W 1023,4 10 0
25.05.2017 04:00:00 10,4 10,1 22 12 - - NW 1023,7 10 0
25.05.2017 03:00:00 10,2 10,0 22 12 - - WNW 1023,5 10 0
25.05.2017 02:00:00 10,0 9,8 25 14 - - NW 1023,5 10 0
25.05.2017 01:00:00 10,8 10,5 29 16 - - NW 1023,5 10 0
25.05.2017 00:00:00 11,2 10,8 22 12 - - WNW 1023,2 10 0
24.05.2017 23:00:00 11,4 11,0 22 12 - - NW 1023,2 10 0
24.05.2017 22:00:00 11,4 11,0 18 10 - - NW 1023,1 10 6
24.05.2017 21:00:00 11,7 11,1 22 12 - - NW 1022,9 10 24
24.05.2017 20:00:00 11,8 11,2 22 12 - - NW 1022,8 10 12
24.05.2017 19:00:00 11,8 11,0 18 10 - - W 1022,6 10 18
24.05.2017 18:00:00 11,7 10,7 18 10 - - W 1022,7 10 0
24.05.2017 17:00:00 11,6 10,8 14 8 - - W 1022,8 10 0
24.05.2017 16:00:00 11,6 10,5 18 10 - - W 1022,8 10 0
24.05.2017 15:00:00 11,9 9,8 18 10 - - W 1022,6 10 0
24.05.2017 14:00:00 11,5 9,7 14 8 - - WZW 1022,5 10 0
24.05.2017 13:00:00 11,7 9,4 18 10 - - WZW 1022,6 10 0
24.05.2017 12:00:00 11,5 9,9 18 10 - - WZW 1022,6 10 0
24.05.2017 11:00:00 11,3 9,8 22 12 - - W 1022,5 10 6
24.05.2017 10:00:00 11,1 10,0 25 14 - - W 1022,1 10 48
24.05.2017 09:00:00 11,2 10,2 25 14 - - W 1022,0 10 42
24.05.2017 08:00:00 11,2 9,9 25 14 - - W 1021,8 10 54
24.05.2017 07:00:00 11,1 9,7 22 12 - - WNW 1021,4 10 42
24.05.2017 06:00:00 10,9 9,7 25 14 - - WNW 1021,2 10 12
24.05.2017 05:00:00 10,8 9,7 29 16 - - WNW 1021,2 10 0
24.05.2017 04:00:00 10,9 9,7 29 16 - - WNW 1020,9 10 0
24.05.2017 03:00:00 10,8 9,7 29 16 - - WNW 1020,8 10 0
24.05.2017 02:00:00 10,9 9,9 32 18 - - WNW 1020,6 10 0
24.05.2017 01:00:00 11,1 9,9 29 16 - - WNW 1020,6 10 0
24.05.2017 00:00:00 11,1 10,1 25 14 - - W 1020,6 10 0
23.05.2017 23:00:00 11,0 10,0 29 16 - - W 1020,4 10 0
23.05.2017 22:00:00 11,0 10,0 29 16 - - W 1020,1 10 0
23.05.2017 21:00:00 11,2 9,7 32 18 - - W 1019,3 10 24
23.05.2017 20:00:00 11,3 9,3 36 19 - - WNW 1019,1 10 48
23.05.2017 19:00:00 11,3 9,5 36 19 47 25 WNW 1018,5 10 36
23.05.2017 18:00:00 11,4 9,8 40 21 47 25 WNW 1018,1 10 54
23.05.2017 17:00:00 11,5 10,0 36 19 - - WNW 1017,5 3,1 60
23.05.2017 16:00:00 11,7 10,4 36 19 - - WNW 1017,1 6 60
23.05.2017 15:00:00 12,2 11,4 32 18 - - WNW 1016,1 10 36
23.05.2017 14:00:00 12,4 11,0 29 16 - - W 1015,4 9 36
23.05.2017 13:00:00 13,1 11,2 29 16 - - W 1015,0 10 48
23.05.2017 12:00:00 13,5 11,4 14 8 - - ZW 1014,1 10 60
23.05.2017 11:00:00 13,2 11,8 14 8 - - ZW 1013,8 10 30
23.05.2017 10:00:00 13,3 11,6 14 8 - - ZW 1013,9 10 18
23.05.2017 09:00:00 13,2 11,4 14 8 - - ZZW 1013,9 10 48
23.05.2017 08:00:00 13,3 11,2 18 10 - - Z 1013,8 10 36
23.05.2017 07:00:00 13,4 11,2 22 12 - - Z 1013,7 10 0
23.05.2017 06:00:00 13,5 11,2 18 10 - - ZZO 1013,9 10 0
23.05.2017 05:00:00 13,9 11,7 22 12 - - ZO 1014,1 10 0
23.05.2017 04:00:00 13,3 11,9 22 12 - - ZO 1014,7 10 0
23.05.2017 03:00:00 13,6 11,9 25 14 - - ZO 1015,0 10 0
23.05.2017 02:00:00 14,1 11,9 25 14 - - ZO 1015,5 10 0
23.05.2017 01:00:00 14,4 12,2 25 14 - - OZO 1015,9 10 0
23.05.2017 00:00:00 14,3 11,6 22 12 - - O 1016,4 10 0
22.05.2017 23:00:00 13,8 11,0 18 10 - - O 1016,9 10 0
22.05.2017 22:00:00 14,3 10,7 22 12 - - O 1017,1 10 0
22.05.2017 21:00:00 14,7 10,1 22 12 - - O 1017,2 10 0
22.05.2017 20:00:00 14,4 10,8 22 12 - - O 1017,7 10 42
22.05.2017 19:00:00 14,2 10,7 22 12 - - O 1018,2 10 60
22.05.2017 18:00:00 14,0 11,7 18 10 - - ONO 1018,9 10 60
22.05.2017 17:00:00 14,1 12,3 18 10 - - O 1019,6 10 60
22.05.2017 16:00:00 13,9 12,1 14 8 - - ONO 1020,2 10 60
22.05.2017 15:00:00 13,7 11,3 18 10 - - O 1020,8 10 60
22.05.2017 14:00:00 13,3 11,0 14 8 - - O 1021,3 10 60
22.05.2017 13:00:00 13,1 10,6 14 8 - - O 1021,7 10 60
22.05.2017 12:00:00 13,0 10,4 14 8 - - O 1022,0 10 60
22.05.2017 11:00:00 12,9 10,2 14 8 - - O 1022,3 10 60
22.05.2017 10:00:00 12,8 10,2 14 8 - - OZO 1022,3 10 60
22.05.2017 09:00:00 12,8 10,5 14 8 - - ZO 1022,6 10 60
22.05.2017 08:00:00 12,4 11,2 11 6 - - ZO 1022,9 10 60
22.05.2017 07:00:00 12,4 11,3 14 8 - - OZO 1023,2 10 60
22.05.2017 06:00:00 12,0 10,6 14 8 - - ZO 1023,5 10 6

tt = temperatuur
td = dauwpunt
ff = windsnelheid
fx = windstoten
dd = windrichting
ppp = luchtdruk
vv = zicht
sd = Zonneschijnduur

Weerstations in de omgeving